Weather History for KROA - August, 2013

Change the Weather History Date:

Sunday, August 11, 2013

  Actual Average Record
Temperature  
Mean Temperature 80 °F 76 °F  
Max Temperature 89 °F 87 °F 99 °F (1926)
Min Temperature 71 °F 66 °F 52 °F (1962)
Degree Days  
Heating Degree Days 0 0  
Month to date heating degree days 0 0  
Since 1 June heating degree days 1 11  
Since 1 July heating degree days 0 0  
Cooling Degree Days 15 11  
Month to date cooling degree days 130 123  
Year to date cooling degree days 928 846  
Since 1 June cooling degree days 778 730  
Growing Degree Days 31 (Base 50)    
Moisture  
Dew Point 70 °F    
Average Humidity 72    
Maximum Humidity 93    
Minimum Humidity 50    
Precipitation  
Precipitation 0.47 in 0.10 in 3.16 in (1984)
Month to date precipitation 0.88 1.27  
Year to date precipitation 40.64 25.84  
Snow  
Snow 0.00 in - - ()
Month to date snowfall 0.0  
Since 1 June snowfall 0.0  
Since 1 July snowfall 0.0  
Snow Depth 0.00 in    
Sea Level Pressure  
Sea Level Pressure 30.09 in    
Wind  
Wind Speed 4 mph (SW)    
Max Wind Speed 30 mph    
Max Gust Speed 33 mph    
Visibility 10 miles    
Events Rain , Thunderstorm    
T = Trace of Precipitation, MM = Missing Value Source: NWS Daily Summary

Daily Weather History Graph

Daily Weather History Graph

Search for Another Location

Airport or City:

Trip Planner

Search our weather history database for the weather conditions in past years. The results will help you decide how hot, cold, wet, or windy it might be!

Date:

Astronomy

Aug. 11, 2013 Rise Set
Actual Time 6:32 AM EDT 8:16 PM EDT
Civil Twilight 6:04 AM EDT 8:44 PM EDT
Nautical Twilight 5:31 AM EDT 9:18 PM EDT
Astronomical Twilight 4:54 AM EDT 9:54 PM EDT
Moon 11:11 AM EDT (8/11) 10:39 PM EDT (8/11)
Length of Visible Light 14h 39m
Length of Day
13h 43m
Waxing Crescent, 22% of the Moon is Illuminated
Aug 11
Waxing Crescent
Aug 14
First Quarter
Aug 20
Full
Aug 28
Last Quarter
Sep 5
New

Hourly Weather History & Observations

Time (EDT) Temp. Heat Index Dew Point Humidity Pressure Visibility Wind Dir Wind Speed Gust Speed Precip Events Conditions
12:54 AM 77.0 °F - 69.1 °F 76% 30.10 in 10.0 mi Calm Calm - N/A   Clear
1:54 AM 73.9 °F - 70.0 °F 87% 30.09 in 10.0 mi Calm Calm - N/A   Clear
2:34 AM 75.2 °F - 71.6 °F 89% 30.13 in 10.0 mi SSW 3.5 mph - N/A   Mostly Cloudy
2:54 AM 75.0 °F - 72.0 °F 90% 30.09 in 10.0 mi Calm Calm - N/A   Overcast
3:37 AM 73.4 °F - 71.6 °F 94% 30.13 in 10.0 mi SSE 5.8 mph - N/A   Overcast
3:54 AM 73.9 °F - 71.1 °F 91% 30.09 in 10.0 mi SSE 6.9 mph - N/A   Overcast
4:54 AM 73.9 °F - 71.1 °F 91% 30.10 in 10.0 mi SSE 4.6 mph - N/A   Overcast
5:36 AM 73.4 °F - 71.6 °F 94% 30.15 in 10.0 mi South 3.5 mph - N/A   Mostly Cloudy
5:54 AM 73.9 °F - 71.1 °F 91% 30.11 in 10.0 mi Calm Calm - N/A   Overcast
6:54 AM 73.0 °F - 69.1 °F 87% 30.12 in 10.0 mi West 3.5 mph - N/A   Mostly Cloudy
7:06 AM 73.4 °F - 68.0 °F 83% 30.16 in 10.0 mi WSW 3.5 mph - N/A   Mostly Cloudy
7:54 AM 73.0 °F - 68.0 °F 84% 30.12 in 10.0 mi SW 4.6 mph - N/A   Scattered Clouds
8:54 AM 75.0 °F - 68.0 °F 79% 30.13 in 10.0 mi WSW 4.6 mph - N/A   Mostly Cloudy
9:54 AM 78.1 °F - 69.1 °F 74% 30.13 in 10.0 mi West 4.6 mph - N/A   Scattered Clouds
10:54 AM 82.0 °F 85.9 °F 70.0 °F 67% 30.13 in 10.0 mi Variable 4.6 mph - N/A   Partly Cloudy
11:54 AM 82.0 °F 84.9 °F 68.0 °F 62% 30.11 in 10.0 mi Calm Calm - N/A   Mostly Cloudy
12:54 PM 84.0 °F 87.0 °F 68.0 °F 58% 30.09 in 10.0 mi West 6.9 mph - N/A   Mostly Cloudy
1:54 PM 84.9 °F 87.6 °F 66.9 °F 55% 30.07 in 10.0 mi West 8.1 mph - N/A   Scattered Clouds
2:54 PM 88.0 °F 90.7 °F 66.9 °F 49% 30.06 in 10.0 mi West 8.1 mph - N/A   Scattered Clouds
3:54 PM 87.1 °F 90.6 °F 68.0 °F 53% 30.03 in 10.0 mi West 5.8 mph - N/A   Scattered Clouds
4:54 PM 87.1 °F 89.9 °F 66.9 °F 51% 30.04 in 10.0 mi SW 8.1 mph - N/A Thunderstorm Thunderstorm
5:20 PM 75.2 °F - 68.0 °F 78% 30.09 in 10.0 mi NNW 16.1 mph 31.1 mph 0.00 in Rain Light Rain
5:39 PM 73.4 °F - 69.8 °F 88% 30.07 in 1.0 mi SSW 9.2 mph - 0.31 in Rain Heavy Rain
5:54 PM 77.0 °F - 73.4 °F 89% 30.04 in 10.0 mi Calm Calm - 0.47 in Rain Light Rain
6:54 PM 77.0 °F - 68.0 °F 74% 30.05 in 10.0 mi SE 4.6 mph - 0.00 in   Mostly Cloudy
7:54 PM 73.9 °F - 69.8 °F 87% 30.07 in 10.0 mi East 3.5 mph - N/A   Mostly Cloudy
8:50 PM 73.4 °F - 69.8 °F 88% 30.11 in 10.0 mi SW 3.5 mph - N/A   Overcast
8:54 PM 73.9 °F - 69.8 °F 87% 30.08 in 10.0 mi Calm Calm - N/A   Mostly Cloudy
9:54 PM 73.9 °F - 71.6 °F 92% 30.09 in 10.0 mi Calm Calm - N/A   Mostly Cloudy
10:54 PM 73.9 °F - 71.6 °F 92% 30.07 in 10.0 mi West 4.6 mph - N/A   Scattered Clouds
11:54 PM 71.1 °F - 70.0 °F 96% 30.07 in 10.0 mi Calm Calm - N/A   Clear